Regional Weather Roundup
Issued by NWS

Home | Current Version | Previous Version | Graphics & Text | Print | Product List | Glossary On
Versions: 1 2 3 4 5 6 7 8 9 10 11 12 13 14 15 16 17 18 19 20 21 22 23 24 25 26 27 28 29 30 31 32 33 34 35 36 37 38 39 40 41 42 43 44 45 46 47 48 49 50
000
ASUS43 KOAX 231410
RWRNE

WEATHER ROUNDUP FOR NEBRASKA
NATIONAL WEATHER SERVICE OMAHA NE
900 AM CDT TUE MAY 23 2017

NOTES: SATELLITE DATA IS BEING USED TO AUGMENT CLOUD COVER ABOVE
       12000 FEET.
       "FAIR" INDICATES FEW OR NO CLOUDS BELOW 12,000 FEET WITH NO
       SIGNIFICANT WEATHER AND/OR OBSTRUCTIONS TO VISIBILITY.

  * THESE STATIONS DO NOT REPORT WEATHER SUCH AS RAIN...SNOW OR FOG.

NEZ001>004-019>022-054>056-231500-
NEBRASKA PANHANDLE

CITY           SKY/WX    TMP DP  RH WIND       PRES   REMARKS
SCOTTSBLUFF    CLOUDY    46  40  79 W9        30.17S
ALLIANCE       CLOUDY    47  40  76 NW16      30.13R
CHADRON        CLOUDY    47  39  74 NW10      30.16R
GORDON         PTSUNNY   50  41  70 N18       30.11S
KIMBALL        CLOUDY    44  40  83 NW10      30.19S
SIDNEY         CLOUDY    47  41  80 NW15      30.16S
$$

NEZ057>060-069>072-079>082-231500-
SOUTHWEST NEBRASKA

CITY           SKY/WX    TMP DP  RH WIND       PRES   REMARKS
NORTH PLATTE   CLOUDY    50  47  89 NW12      30.06S
IMPERIAL       CLOUDY    48  39  71 NW16G24   30.11R
LEXINGTON      CLOUDY    50  45  82 NW16G22   30.02F
MCCOOK         CLOUDY    51  44  77 NW16      30.06S
OGALLALA       CLOUDY    50  40  70 NW21      30.11S
$$

NEZ005>010-023>029-035>040-094-231500-
NORTH CENTRAL NEBRASKA

CITY           SKY/WX    TMP DP  RH WIND       PRES   REMARKS
VALENTINE      MOSUNNY   51  38  60 NW21G28   30.06R
AINSWORTH      CLOUDY    48  41  76 N18       30.03S
BROKEN BOW     CLOUDY    52  44  74 NW21G26   30.00R
O`NEILL        CLOUDY    52  41  65 N17G28    29.97S
ORD            CLOUDY    53  44  71 NW17G25   29.96S
THEDFORD       CLOUDY    51  43  72 N22G28    30.05S
$$

NEZ041-046>049-061>064-073>077-083>087-231500-
SOUTH CENTRAL NEBRASKA

CITY           SKY/WX    TMP DP  RH WIND       PRES   REMARKS
GRAND ISLAND   CLOUDY    51  46  83 W14       29.97F
AURORA         CLOUDY    51  45  82 NW9       29.96S
HASTINGS       CLOUDY    50  45  83 W13       29.98F
HEBRON         SUNNY     55  47  75 NW7       29.97S
HOLDREGE       CLOUDY    50  44  81 NW12G17   30.01S
KEARNEY *      CLOUDY    52  43  71 W13       29.99F
YORK           CLOUDY    50  46  87 NW10      29.95F
$$

NEZ011>018-030>034-042>045-231500-
NORTHEAST NEBRASKA

CITY           SKY/WX    TMP DP  RH WIND       PRES   REMARKS
NORFOLK        CLOUDY    50  44  80 NW8       29.91F
ALBION         CLOUDY    53  46  75 NW13      29.94F
BLAIR          CLOUDY    52  45  76 NW10      29.91S
FREMONT        CLOUDY    51  46  83 NW9       29.93S
TEKAMAH        LGT RAIN  51  45  79 NW10      29.91S
WAYNE          LGT RAIN  49  48  97 NW10G16   29.92F
$$

NEZ050>053-065>068-078-088>093-231500-
SOUTHEAST NEBRASKA

CITY           SKY/WX    TMP DP  RH WIND       PRES   REMARKS
LINCOLN        MOSUNNY   57  44  62 NW10      29.94F
OMAHA EPPLEY   PTSUNNY   55  43  63 NW10      29.91F
BEATRICE         N/A     56  47  72 N10       29.95S
FALLS CITY     SUNNY     56  47  71 NW10      29.91S
NEBRASKA CITY  SUNNY     55  42  63 N14       29.92S
PLATTSMOUTH    SUNNY     55  43  63 NW10      29.91S
$$

NEZ044-045-051>053-067-231500-
OMAHA AREA

CITY           SKY/WX    TMP DP  RH WIND       PRES   REMARKS
OMAHA EPPLEY   PTSUNNY   55  43  63 NW10      29.91F
BLAIR          CLOUDY    52  45  76 NW10      29.91S
FREMONT        CLOUDY    51  46  83 NW9       29.93S
MILLARD        PTSUNNY   55  45  67 NW9       29.92S
OFFUTT AFB     MOSUNNY   55  44  66 NW10      29.90F
PLATTSMOUTH    SUNNY     55  43  63 NW10      29.91S
WAHOO          CLOUDY    51  44  76 NW7       29.93F
$$



USA.gov is the U.S. government's official web portal to all federal, state and local government web resources and services.